W9KOZ-7 Weather Reports


time (UTC)temp
C
wind
direction
speed
KPH
gust
KPH
rain 1hr
cm
rain 24hr
cm
rain mn
cm
humidity
%
barometer
mb
20260906214857 24 189 6.4 16.1 0.00 0.00 0.00 43 1027.4
20260906213857 23 148 8.0 20.9 0.00 0.00 0.00 43 1027.4
20260906213342 23 133 8.0 19.3 0.00 0.00 0.00 44 1027.7
20260906211857 23 141 9.7 19.3 0.00 0.00 0.00 44 1027.8
20260906210857 23 168 9.7 24.1 0.00 0.00 0.00 46 1027.8
20260906205857 23 127 9.7 22.5 0.00 0.00 0.00 47 1027.8
20260906204852 22 150 9.7 20.9 0.00 0.00 0.00 51 1027.9
20260906203850 22 160 11.3 29.0 0.00 0.00 0.00 51 1028.0
20260906202851 23 160 9.7 22.5 0.00 0.00 0.00 51 1028.0
20260906201849 22 165 9.7 20.9 0.00 0.00 0.00 51 1028.2
20260906201344 22 122 9.7 24.1 0.00 0.00 0.00 51 1028.3
20260906195849 22 181 12.9 25.7 0.00 0.00 0.00 51 1028.3
20260906194849 22 141 8.0 24.1 0.00 0.00 0.00 50 1028.4
20260906193849 22 247 11.3 22.5 0.00 0.00 0.00 51 1028.3
20260906192849 22 147 11.3 22.5 0.00 0.00 0.00 49 1028.6
20260906191849 22 119 9.7 17.7 0.00 0.00 0.00 48 1028.7
20260906190848 22 133 9.7 20.9 0.00 0.00 0.00 49 1028.8
20260906190343 21 162 12.9 22.5 0.00 0.00 0.00 50 1028.7
20260906184849 22 141 9.7 19.3 0.00 0.00 0.00 52 1029.1
20260906183848 22 81 9.7 22.5 0.00 0.00 0.00 49 1029.1
20260906182849 22 178 6.4 16.1 0.00 0.00 0.00 48 1029.3
20260906181846 21 125 9.7 17.7 0.00 0.00 0.00 49 1029.3
20260906180847 21 152 9.7 16.1 0.00 0.00 0.00 49 1029.6
20260906175847 21 118 9.7 17.7 0.00 0.00 0.00 51 1029.6
20260906174846 21 131 8.0 17.7 0.00 0.00 0.00 49 1029.6
20260906173847 21 131 8.0 17.7 0.00 0.00 0.00 49 1030.0
20260906172847 21 218 8.0 19.3 0.00 0.00 0.00 49 1030.1
20260906171847 21 133 4.8 14.5 0.00 0.00 0.00 49 1030.0
20260906171337 21 134 6.4 19.3 0.00 0.00 0.00 48 1030.0
20260906165847 21 146 4.8 11.3 0.00 0.00 0.00 49 1030.0
20260906164846 20 89 6.4 14.5 0.00 0.00 0.00 49 1030.0
20260906163847 20 152 4.8 12.9 0.00 0.00 0.00 48 1030.0
20260906162846 20 185 6.4 14.5 0.00 0.00 0.00 51 1030.1
20260906161846 20 130 6.4 16.1 0.00 0.00 0.00 50 1030.0
20260906160847 20 147 8.0 19.3 0.00 0.00 0.00 51 1029.8
20260906160330 20 139 8.0 14.5 0.00 0.00 0.00 51 1029.6
20260906155327 20 129 8.0 14.5 0.00 0.00 0.00 50 1029.5
20260906154313 21 159 6.4 14.5 0.00 0.00 0.00 48 1029.2
20260906152838 21 140 1.6 9.7 0.00 0.00 0.00 48 1029.3
20260906151836 20 224 0.0 3.2 0.00 0.00 0.00 53 1029.2
20260906150835 19 359 0.0 1.6 0.00 0.00 0.00 57 1029.2
20260906150314 18 350 0.0 3.2 0.00 0.00 0.00 62 1029.2
20260906144835 17 345 0.0 4.8 0.00 0.00 0.00 63 1028.9
20260906143835 16 324 0.0 0.0 0.00 0.00 0.00 68 1029.3
20260906142836 15 347 0.0 3.2 0.00 0.00 0.00 70 1029.2
20260906141835 13 359 0.0 3.2 0.00 0.00 0.00 73 1029.2
20260906140833 13 359 1.6 3.2 0.00 0.00 0.00 77 1029.1
20260906135833 12 312 0.0 3.2 0.00 0.00 0.00 79 1028.8
20260906135316 11 303 0.0 0.0 0.00 0.00 0.00 82 1028.7
20260906133833 10 231 0.0 0.0 0.00 0.00 0.00 83 1028.8
20260906132833 10 273 0.0 0.0 0.00 0.00 0.00 83 1028.8
20260906131835 10 272 0.0 0.0 0.00 0.00 0.00 84 1028.8
20260906130833 10 273 0.0 0.0 0.00 0.00 0.00 83 1028.7
20260906130318 9 272 0.0 0.0 0.00 0.00 0.00 83 1028.7
20260906124833 9 272 0.0 0.0 0.00 0.00 0.00 83 1028.6
20260906124320 10 271 0.0 0.0 0.00 0.00 0.00 83 1028.6
20260906122833 10 273 0.0 0.0 0.00 0.00 0.00 82 1028.6
20260906121833 10 272 0.0 0.0 0.00 0.00 0.00 82 1028.6
20260906121751 10 275 0.0 0.0 0.00 0.00 0.00 82 1028.4
20260906115834 10 268 0.0 1.6 0.00 0.00 0.00 82 1028.4
20260906114836 10 269 0.0 0.0 0.00 0.00 0.00 82 1028.3
20260906113833 10 265 0.0 0.0 0.00 0.00 0.00 81 1028.3
20260906112832 10 271 0.0 0.0 0.00 0.00 0.00 81 1028.3
20260906111828 10 274 0.0 0.0 0.00 0.00 0.00 81 1028.2
20260906110827 10 273 0.0 0.0 0.00 0.00 0.00 80 1028.0
20260906105827 11 279 0.0 0.0 0.00 0.00 0.00 80 1028.0
20260906104827 11 280 0.0 0.0 0.00 0.00 0.00 80 1027.9
20260906103827 11 282 0.0 0.0 0.00 0.00 0.00 80 1028.0
20260906102827 11 283 0.0 0.0 0.00 0.00 0.00 80 1028.2
20260906101827 11 283 0.0 0.0 0.00 0.00 0.00 80 1028.2
20260906100827 11 281 0.0 0.0 0.00 0.00 0.00 80 1028.2
20260906100302 11 282 0.0 0.0 0.00 0.00 0.00 80 1028.3
20260906094819 11 284 0.0 3.2 0.00 0.00 0.00 80 1028.2
20260906093819 11 304 0.0 0.0 0.00 0.00 0.00 80 1028.3
20260906092819 11 359 0.0 0.0 0.00 0.00 0.00 80 1028.2
20260906091818 11 303 0.0 0.0 0.00 0.00 0.00 79 1028.2
20260906091251 11 304 0.0 0.0 0.00 0.00 0.00 79 1028.0
20260906085816 11 359 0.0 0.0 0.00 0.00 0.00 80 1028.2
20260906084817 11 304 0.0 0.0 0.00 0.00 0.00 79 1028.2
20260906083817 10 303 0.0 0.0 0.00 0.00 0.00 78 1028.2
20260906083301 10 304 0.0 0.0 0.00 0.00 0.00 79 1028.2
20260906081817 10 303 0.0 0.0 0.00 0.00 0.00 79 1028.3
20260906080816 11 304 0.0 0.0 0.00 0.00 0.00 77 1028.3
20260906075817 11 304 0.0 0.0 0.00 0.00 0.00 78 1028.4
20260906074818 11 305 0.0 0.0 0.00 0.00 0.00 77 1028.3
20260906073817 11 305 0.0 0.0 0.00 0.00 0.00 77 1028.2
20260906072816 11 305 0.0 0.0 0.00 0.00 0.00 77 1028.2
20260906071817 11 306 0.0 0.0 0.00 0.00 0.00 77 1028.3
20260906070814 11 306 0.0 0.0 0.00 0.00 0.00 78 1028.4
20260906065815 11 305 0.0 0.0 0.00 0.00 0.00 78 1028.3
20260906064813 11 306 0.0 3.2 0.00 0.00 0.00 79 1028.3
20260906063813 11 305 0.0 0.0 0.00 0.00 0.00 78 1028.3
20260906062812 11 304 0.0 0.0 0.00 0.00 0.00 78 1028.3
20260906061809 11 246 0.0 0.0 0.00 0.00 0.00 77 1028.4
20260906060807 11 237 0.0 3.2 0.00 0.00 0.00 77 1028.4
20260906060247 11 252 0.0 1.6 0.00 0.00 0.00 77 1028.6
20260906055239 11 36 0.0 1.6 0.00 0.00 0.00 77 1028.4
20260906054726 11 359 0.0 0.0 0.00 0.00 0.00 77 1028.4
20260906052804 11 359 0.0 0.0 0.00 0.00 0.00 77 1028.4
20260906052240 12 244 0.0 0.0 0.00 0.00 0.00 77 1028.6
20260906050804 12 247 0.0 0.0 0.00 0.00 0.00 77 1028.7
20260906045804 12 245 0.0 1.6 0.00 0.00 0.00 77 1028.8
20260906044800 12 251 0.0 1.6 0.00 0.00 0.00 77 1028.8
20260906044240 12 283 0.0 0.0 0.00 0.00 0.00 76 1028.9
20260906042801 12 280 0.0 0.0 0.00 0.00 0.00 76 1028.9
20260906041800 12 268 0.0 0.0 0.00 0.00 0.00 75 1029.1
20260906041243 12 278 0.0 0.0 0.00 0.00 0.00 74 1028.9
20260906035800 12 272 0.0 0.0 0.00 0.00 0.00 72 1028.9
20260906034800 13 264 1.6 4.8 0.00 0.00 0.00 71 1028.9
20260906033800 13 238 0.0 3.2 0.00 0.00 0.00 72 1028.9
20260906032800 13 251 0.0 3.2 0.00 0.00 0.00 70 1029.1
20260906031757 13 258 0.0 0.0 0.00 0.00 0.00 72 1029.2
20260906031236 13 250 0.0 3.2 0.00 0.00 0.00 69 1029.1
20260906025756 13 221 0.0 0.0 0.00 0.00 0.00 71 1028.7
20260906024756 13 225 0.0 0.0 0.00 0.00 0.00 71 1028.6
20260906023756 13 134 1.6 4.8 0.00 0.00 0.00 70 1028.4
20260906022756 13 164 0.0 0.0 0.00 0.00 0.00 69 1028.3
20260906022226 13 164 0.0 0.0 0.00 0.00 0.00 67 1028.3
20260906020756 14 359 0.0 0.0 0.00 0.00 0.00 68 1028.0
20260906020234 15 29 0.0 0.0 0.00 0.00 0.00 66 1027.9
20260906014756 15 16 0.0 0.0 0.00 0.00 0.00 65 1028.0
20260906013756 16 19 0.0 0.0 0.00 0.00 0.00 64 1027.9
20260906012756 17 18 0.0 0.0 0.00 0.00 0.00 60 1028.0
20260906012237 17 18 0.0 0.0 0.00 0.00 0.00 61 1028.0
20260906010756 18 21 0.0 0.0 0.00 0.00 0.00 59 1028.0
20260906005755 19 338 0.0 0.0 0.00 0.00 0.00 56 1027.9
20260906004756 20 311 0.0 4.8 0.00 0.00 0.00 55 1028.3
20260906003756 21 350 0.0 4.8 0.00 0.00 0.00 48 1028.3
20260906002755 22 271 0.0 3.2 0.00 0.00 0.00 46 1028.3
20260906001755 23 318 1.6 6.4 0.00 0.00 0.00 39 1028.3
20260906000755 23 144 3.2 14.5 0.00 0.00 0.00 38 1028.3
20260905235755 23 133 0.0 11.3 0.00 0.00 0.00 38 1028.2
20260905234755 23 229 1.6 4.8 0.00 0.00 0.00 38 1028.3
20260905233756 23 164 3.2 8.0 0.00 0.00 0.00 37 1028.2
20260905232756 24 295 0.0 3.2 0.00 0.00 0.00 36 1028.0
20260905231755 24 210 1.6 8.0 0.00 0.00 0.00 37 1028.2
20260905230755 23 176 1.6 4.8 0.00 0.00 0.00 42 1028.2
20260905230724 22 174 0.0 0.0 0.00 0.00 0.00 43 1028.3
20260905224756 22 147 0.0 1.6 0.00 0.00 0.00 45 1028.3
20260905223755 22 146 0.0 4.8 0.00 0.00 0.00 45 1028.4
20260905222755 23 199 1.6 6.4 0.00 0.00 0.00 42 1028.6
20260905221755 24 310 1.6 11.3 0.00 0.00 0.00 38 1028.3
20260905220755 25 87 1.6 6.4 0.00 0.00 0.00 37 1028.3
20260905215755 25 75 3.2 12.9 0.00 0.00 0.00 38 1028.3